Location: Unspecified
(44.0704°N, 88.6889°W)
Time: 22:35:46
(UTC+02:00)

ISS - Visible Passes

Search period start: 20 May 2019 00:00
Search period end: 30 May 2019 00:00
Orbit: 408 x 410 km, 51.6° (Epoch: 21 May)

Date Brightness Start Highest point End Pass type
(mag) Time Alt. Az. Time Alt. Az. Time Alt. Az.
20 May -3.6 04:11:42 10° SW 04:14:52 47° SE 04:18:04 10° ENE visible
20 May -2.0 05:48:30 10° W 05:51:33 33° NNW 05:54:36 10° NE visible
20 May -1.2 07:26:09 10° NW 07:28:46 21° N 07:31:24 10° NE visible
20 May -2.3 09:02:52 10° NW 09:05:59 36° NNE 09:09:05 10° E visible
20 May -3.4 10:39:27 10° WNW 10:42:35 40° SW 10:45:43 10° SSE visible
21 May -2.7 04:57:20 10° W 05:00:32 47° NNW 05:03:45 10° NE visible
21 May -1.2 06:35:00 10° WNW 06:37:39 22° N 06:40:18 10° NE visible
21 May -1.7 08:12:00 10° NW 08:14:56 28° NNE 08:14:59 28° NNE visible
22 May -3.6 04:06:17 10° WSW 04:09:34 75° NNW 04:12:53 10° ENE visible
22 May -1.4 05:43:45 10° WNW 05:46:32 24° N 05:49:19 10° NE visible
22 May -1.4 07:21:05 10° NW 07:23:50 24° N 07:24:59 20° NE visible
22 May -0.9 08:57:32 10° NW 08:57:40 11° NW 08:57:40 11° NW visible
23 May -1.7 04:52:28 10° W 04:55:25 29° NNW 04:58:23 10° NE visible
23 May -1.2 06:30:03 10° NW 06:32:42 22° N 06:35:21 10° ENE visible
23 May -1.5 08:06:39 10° NW 08:08:03 22° NW 08:08:03 22° NW visible
24 May -2.2 04:01:13 10° W 04:04:21 39° NNW 04:07:30 10° NE visible
24 May -1.2 05:38:55 10° NW 05:41:32 21° N 05:44:10 10° NE visible
24 May -2.0 07:15:45 10° NW 07:18:33 31° N 07:18:33 31° N visible
25 May -1.3 04:47:40 10° WNW 04:50:22 23° N 04:53:05 10° NE visible
25 May -1.6 06:24:50 10° NW 06:27:40 25° NNE 06:29:07 19° NE visible
25 May -1.1 08:01:16 10° WNW 08:01:50 14° WNW 08:01:50 14° WNW visible
26 May -1.5 03:56:22 10° WNW 03:59:13 26° NNW 04:02:05 10° NE visible
26 May -1.4 05:33:49 10° NW 05:36:31 22° N 05:39:12 10° ENE visible
26 May -2.2 07:10:20 10° NW 07:12:26 34° NNW 07:12:26 34° NNW visible
27 May -1.3 04:42:42 10° NW 04:45:19 21° N 04:47:56 10° NE visible
27 May -2.5 06:19:24 10° NW 06:22:31 37° NNE 06:23:03 34° NE visible
28 May -1.9 05:28:27 10° NW 05:31:23 28° NNE 05:33:42 14° ENE visible
28 May -1.8 07:04:54 10° WNW 07:06:25 25° WNW 07:06:25 25° WNW visible
29 May -1.6 04:37:27 10° NW 04:40:12 24° N 04:42:57 10° ENE visible
29 May -3.6 06:13:54 10° NW 06:17:05 68° NNE 06:17:05 68° NNE visible
